Regional Weather Roundup
Issued by NWS Goodland, KS

Home | Current Version | Previous Version | Text Only | Print | Product List | Glossary On
Versions: 1 2 3 4 5 6 7 8 9 10 11 12 13 14 15 16 17 18 19 20 21 22 23 24 25 26 27 28 29 30 31 32 33 34 35 36 37 38 39 40 41 42 43 44 45 46 47 48 49 50
000
ASUS43 KGLD 231608
RWRGLD

GOODLAND FORECAST AREA HOURLY WEATHER ROUNDUP
NATIONAL WEATHER SERVICE GOODLAND KS
1000 AM MDT SAT SEP 23 2017

...OFFICIAL OBSERVATIONS...

CITY           SKY/WX    TMP DP  RH WIND       PRES   REMARKS
GOODLAND KS    CLOUDY    59  51  75 NW7       29.94R
HILL CITY KS   MOSUNNY   83  66  56 S16G26    29.90S
IMPERIAL NEB   CLOUDY    52  47  83 N13       29.95R
MCCOOK NEB     CLOUDY    76  65  68 S15       29.89R
AKRON CO       CLOUDY    46  42  86 N10       29.99R
BURLINGTON CO  CLOUDY    54  48  80 N8        29.97R
LIMON CO         N/A    N/A N/A N/A MISG      30.01R
$$

...UNOFFICIAL OBSERVATIONS...

CITY           SKY/WX    TMP DP  RH WIND       PRES   REMARKS
LENORA KS        N/A     80  32  17 MISG        N/A
NORTON KS      SUNNY     81  59  47 S12G18    29.89S
SHARON SPRINGS   N/A     74  64  70 S14G22      N/A
KIT CARSON CO    N/A     52  45  78 MISG        N/A
YUMA CO        CLOUDY    46  43  87 N10       29.97R
$$




USA.gov is the U.S. government's official web portal to all federal, state and local government web resources and services.